Weather in Qiqihar

China     47°20′18″N   123°58′24″E
temp.,
°C
wind,
m/s
gust,
m/s
humid.,
%
clouds,
%
prec.,
mm/h
press.,
hPa
HPBL,
m
9 march, tue
tue923:000wnw4105513 0.0 1012192
02:00−1w48696 0.0 1013121
05:00−1w616610 0.0 1014575
08:000nw11173717 0.0 10161874
11:00+3nnw1215220 0.0 10191801
14:00+4nnw913270 0.0 10222018
17:00+2n48280 0.0 1025552
20:00−2wnw35430 0.0 102889
10 march, wed
wed1023:00−4wnw22530 0.0 102921
02:00−5s22502 0.0 102821
05:00−5s465562 0.0 102694
08:00−1ssw8143276 0.0 1024612
11:00+4ssw91318100 0.0 10201095
14:00+8sw792067 0.0 10171133
17:00+5nnw34300 0.0 101877
20:00+1nw713520 0.0 1022333
11 march, thu
thu1123:00−2nnw512610 0.0 1025356
02:00−3nnw410670 0.0 1028264
05:00−5n36730 0.0 1029104
08:00−3nne35570 0.0 1031257
11:00+2nne22338 0.0 1030847
14:00+4nnw222525 0.0 10291100
17:00+3nnw112982 0.0 102823
20:000se113688 0.0 103022
12 march, fri
fri1223:00−2sw224023 0.0 103021
02:00−3sw234411 0.0 103021
05:00−3ssw23520 0.0 103024
08:000sw34440 0.0 1031170
11:00+6ssw45270 0.0 1030650
14:00+9sw45210 0.0 1027947
17:00+7s47250 0.0 1025230
20:00+2s49360 0.0 1026154
13 march, sat
sat1323:000ssw512410 0.0 1025235
02:00−2s49460 0.0 1024162
05:00−2s510510 0.0 1022186
08:00+2ssw610410 0.0 1021330
11:00+8ssw79310 0.0 1019792
14:00+11ssw78350 0.0 10151107
17:00+10ssw59420 0.0 1013471
20:00+6s512600 0.0 1014231